Date String (YYYY-MM-DD hh:mm:ss) UTC,Instrument flags,Ambient pressure (hPa),Sample flow (lpm),Bypass flow (lpm),Sample temperature (°C),Ambient temperature (°C),ASC tube jacket temperature (°C),LED temperature (°C),Box temperature (°C),Sample RH (%),Span deviation,Mass concentration (μg/m³),Mass concentration (μg/m³),Mass concentration (μg/m³)
DateTimeUTC,F1_M11,P_M11,Q1_M11,Q2_M11,T1_M11,T2_M11,T3_M11,T4_M11,T5_M11,U1_M11,ZSPAN_M11,X0_M11,X2_M11,X1_M11
2021-09-13 16:00:00,,0828.1,5.00,0.00,29.7,28.5,00.0,38.9,31.3,27.9,0000.4,0013.39,0005.90,0004.50
2021-09-13 16:01:00,,0828.3,5.00,0.00,29.6,28.6,00.0,38.9,31.3,28.0,0000.2,0013.99,0005.96,0004.49
2021-09-13 16:02:00,,0828.2,4.99,0.00,29.7,28.7,00.0,38.9,31.4,28.0,-000.4,0014.44,0006.00,0004.50
2021-09-13 16:03:00,,0828.2,5.01,0.00,29.7,28.7,00.0,38.9,31.4,27.9,-000.2,0014.58,0005.99,0004.50
2021-09-13 16:04:00,,0828.1,5.01,0.00,29.6,28.7,00.0,38.9,31.4,27.7,-000.3,0014.69,0005.96,0004.49
2021-09-13 16:05:00,,0828.0,4.99,0.00,29.7,28.8,00.0,38.9,31.4,27.9,-000.1,0014.54,0005.93,0004.46
2021-09-13 16:06:00,,0828.0,4.99,0.00,29.7,28.8,00.0,38.9,31.4,28.1,-000.5,0014.44,0005.86,0004.41
2021-09-13 16:07:00,,0828.0,5.01,0.00,29.7,28.8,00.0,38.9,31.4,28.1,-000.2,0014.85,0005.81,0004.38
2021-09-13 16:08:00,,0828.0,5.00,0.00,29.7,28.8,00.0,38.9,31.4,28.1,0000.0,0015.16,0005.77,0004.36
2021-09-13 16:09:00,,0828.0,5.00,0.00,29.7,28.9,00.0,38.9,31.4,28.4,-000.0,0015.50,0005.71,0004.35
2021-09-13 16:10:00,,0828.0,5.01,0.00,29.7,28.9,00.0,38.9,31.4,28.4,0000.1,0015.60,0005.69,0004.34
2021-09-13 16:11:00,,0828.1,5.01,0.00,29.7,28.9,00.0,38.9,31.4,28.7,0000.3,0015.82,0005.72,0004.34
2021-09-13 16:12:00,,0828.1,5.00,0.00,29.7,28.9,00.0,38.9,31.4,28.4,0000.5,0015.87,0005.68,0004.33
2021-09-13 16:13:00,,0828.1,4.99,0.00,29.7,28.9,00.0,38.9,31.4,28.4,0001.1,0016.38,0005.67,0004.31
2021-09-13 16:14:00,,0828.1,5.00,0.00,29.7,29.0,00.0,38.9,31.5,28.7,0001.6,0016.93,0005.66,0004.29
2021-09-13 16:15:00,,0828.1,5.00,0.00,29.7,29.0,00.0,38.9,31.5,29.4,0002.0,0017.19,0005.70,0004.30
2021-09-13 16:16:00,,0828.2,5.00,0.00,29.8,29.0,00.0,38.9,31.5,29.5,0002.5,0017.99,0005.76,0004.35
2021-09-13 16:17:00,,0828.3,5.01,0.00,29.8,29.0,00.0,38.9,31.5,29.7,0003.5,0018.50,0005.85,0004.39
2021-09-13 16:18:00,,0828.2,4.99,0.00,29.8,29.0,00.0,38.9,31.5,30.1,0003.3,0018.37,0005.94,0004.44
2021-09-13 16:19:00,,0828.2,5.01,0.00,29.8,29.1,00.0,38.9,31.5,30.1,0003.2,0018.68,0005.98,0004.48
2021-09-13 16:20:00,,0828.2,5.00,0.00,29.8,29.1,00.0,38.9,31.6,29.8,0002.8,0019.50,0006.07,0004.52
2021-09-13 16:21:00,,0828.1,5.00,0.00,29.8,29.1,00.0,38.9,31.6,30.3,0001.6,0019.87,0006.14,0004.57
2021-09-13 16:22:00,,0828.2,4.99,0.00,29.8,29.1,00.0,38.9,31.6,30.3,0000.9,0018.90,0006.13,0004.61
2021-09-13 16:23:00,,0828.3,5.00,0.00,29.8,29.1,00.0,38.9,31.6,30.2,0000.5,0018.99,0006.21,0004.68
2021-09-13 16:24:00,,0828.3,5.00,0.00,29.9,29.2,00.0,38.9,31.6,30.4,0000.6,0018.43,0006.30,0004.76
2021-09-13 16:25:00,,0828.3,5.00,0.00,29.9,29.2,00.0,39.0,31.6,29.5,-000.1,0018.06,0006.40,0004.83
2021-09-13 16:26:00,,0828.2,5.00,0.00,29.9,29.2,00.0,39.0,31.7,29.6,-000.2,0017.84,0006.48,0004.90
2021-09-13 16:27:00,,0828.2,5.01,0.00,29.9,29.2,00.0,39.0,31.7,29.2,-000.3,0017.18,0006.48,0004.93
2021-09-13 16:28:00,,0828.2,5.00,0.00,29.9,29.2,00.0,39.0,31.7,29.0,-000.7,0017.48,0006.46,0004.95
2021-09-13 16:29:00,,0828.3,5.00,0.00,29.9,29.2,00.0,39.0,31.7,28.6,-000.3,0017.31,0006.48,0004.94
2021-09-13 16:30:00,,0828.3,5.00,0.00,29.9,27.9,00.0,39.0,31.3,28.3,-000.3,0016.21,0006.49,0004.92
2021-09-13 16:31:00,,0828.1,5.00,0.00,29.7,26.3,00.0,38.9,30.9,28.6,-000.1,0014.74,0006.40,0004.89
2021-09-13 16:32:00,,0828.1,5.00,0.00,29.6,26.1,00.0,38.9,30.9,28.5,0000.3,0015.62,0006.36,0004.87
2021-09-13 16:33:00,,0828.1,5.01,0.00,29.5,26.5,00.0,38.8,30.9,29.2,0001.0,0016.09,0006.30,0004.83
2021-09-13 16:34:00,,0828.0,4.99,0.00,29.5,26.9,00.0,38.8,31.0,30.2,0001.2,0016.15,0006.23,0004.78
2021-09-13 16:35:00,,0828.1,5.00,0.00,29.5,27.3,00.0,38.8,31.1,28.7,0001.1,0016.41,0006.18,0004.71
2021-09-13 16:36:00,,0828.2,5.00,0.00,29.5,27.7,00.0,38.8,31.2,28.1,0001.2,0016.92,0006.09,0004.64
2021-09-13 16:37:00,,0828.2,5.01,0.00,29.5,27.9,00.0,38.7,31.2,27.9,0001.2,0017.65,0006.03,0004.55
2021-09-13 16:38:00,,0828.3,5.00,0.00,29.5,28.1,00.0,38.7,31.3,28.0,0001.5,0019.63,0005.94,0004.45
2021-09-13 16:39:00,,0828.3,4.99,0.00,29.6,28.3,00.0,38.7,31.3,28.5,0001.7,0019.31,0005.81,0004.37
2021-09-13 16:40:00,,0828.4,5.01,0.00,29.6,28.4,00.0,38.7,31.3,27.7,0001.5,0019.27,0005.71,0004.30
2021-09-13 16:41:00,,0828.5,5.00,0.00,29.6,28.5,00.0,38.7,31.4,27.4,0002.0,0019.19,0005.61,0004.25
2021-09-13 16:42:00,,0828.5,5.00,0.00,29.7,28.6,00.0,38.8,31.4,27.1,0002.0,0019.29,0005.57,0004.18
2021-09-13 16:43:00,,0828.5,5.00,0.00,29.7,28.7,00.0,38.8,31.4,27.0,0001.8,0018.98,0005.55,0004.11
2021-09-13 16:44:00,,0828.5,5.00,0.00,29.7,28.8,00.0,38.8,31.5,27.6,0001.2,0019.54,0005.48,0004.04
2021-09-13 16:45:00,,0828.5,5.01,0.00,29.7,28.9,00.0,38.8,31.5,27.6,0000.2,0018.63,0005.40,0003.96
2021-09-13 16:46:00,,0828.4,5.00,0.00,29.8,28.9,00.0,38.8,31.5,27.0,0000.0,0018.36,0005.29,0003.88
2021-09-13 16:47:00,,0828.5,4.99,0.00,29.8,29.0,00.0,38.8,31.6,26.7,0000.0,0018.49,0005.22,0003.81
2021-09-13 16:48:00,,0828.4,5.00,0.00,29.8,29.0,00.0,38.8,31.7,27.4,0000.0,0018.19,0005.16,0003.77
2021-09-13 16:49:00,,0828.3,5.00,0.00,29.9,29.1,00.0,38.9,31.7,27.3,0000.0,0016.62,0005.17,0003.73
2021-09-13 16:50:00,,0828.3,5.01,0.00,29.9,29.1,00.0,38.9,31.7,26.7,0000.0,0016.98,0005.18,0003.68
2021-09-13 16:51:00,,0828.3,5.00,0.00,29.9,29.2,00.0,38.9,31.8,26.2,0000.0,0016.74,0005.10,0003.63
2021-09-13 16:52:00,,0828.3,4.99,0.00,30.0,29.2,00.0,38.9,31.8,26.1,0000.0,0016.94,0005.11,0003.59
2021-09-13 16:53:00,,0828.3,5.00,0.00,30.0,29.3,00.0,39.0,31.8,26.2,0000.0,0017.36,0005.08,0003.55
2021-09-13 16:54:00,,0828.4,5.01,0.00,30.0,29.3,00.0,39.0,31.9,25.9,0000.0,0016.36,0004.96,0003.50
2021-09-13 16:55:00,,0828.5,5.01,0.00,30.1,29.3,00.0,39.0,31.9,26.3,0000.0,0015.09,0004.91,0003.47
2021-09-13 16:56:00,,0828.5,5.00,0.00,30.0,28.3,00.0,39.0,31.6,25.8,0000.0,0015.07,0004.90,0003.44
2021-09-13 16:57:00,,0828.5,4.99,0.00,29.9,26.6,00.0,39.0,31.2,26.1,0000.0,0015.72,0004.88,0003.42
2021-09-13 16:58:00,,0828.4,5.00,0.00,29.8,26.3,00.0,39.0,31.1,26.0,0000.0,0015.45,0004.81,0003.40
2021-09-13 16:59:00,,0828.4,5.01,0.00,29.7,26.7,00.0,38.9,31.1,25.8,0000.0,0015.73,0004.73,0003.37
